Weather reports worldwide

Advertisment
Solenzara, France (7765): temperature & dewpoint: 18.06.2018 11:00:00 - 24.06.2018 11:00:00 (CEST)Solenzara, France (7765): temperature 5cm: 18.06.2018 11:00:00 - 24.06.2018 11:00:00 (CEST)Solenzara, France (7765): temperature -20cm: 18.06.2018 11:00:00 - 24.06.2018 11:00:00 (CEST)Solenzara, France (7765): wind speed & gusts: 18.06.2018 11:00:00 - 24.06.2018 11:00:00 (CEST)Solenzara, France (7765): wind direction: 18.06.2018 11:00:00 - 24.06.2018 11:00:00 (CEST)Solenzara, France (7765): reduced air pressure: 18.06.2018 11:00:00 - 24.06.2018 11:00:00 (CEST)Solenzara, France (7765): visibility: 18.06.2018 11:00:00 - 24.06.2018 11:00:00 (CEST)Solenzara, France (7765): sunshine duration: 18.06.2018 11:00:00 - 24.06.2018 11:00:00 (CEST)Solenzara, France (7765): precipitation: 18.06.2018 11:00:00 - 24.06.2018 11:00:00 (CEST)
Date & Time tt [°C] td [°C] tt 5cm [°C] tt -20cm [°C] ff [km/h] ff [kn] fx [km/h] fx [kn] dd ppp [hPa] vv [km] sd [min] rr [mm]
24.06.2018 11:00:00 - - - - - - - - - - - - -
24.06.2018 10:00:00 25,1 17,6 - - 11 6 16 9 ENE 1016,7 17 - 0,0
24.06.2018 09:00:00 24,8 16,5 25,4 25,8 8 4 14 7 N 1016,8 60 60 0,0
24.06.2018 08:00:00 21,4 15,5 19,8 26,0 8 4 19 11 W 1016,5 58 60 0,0
24.06.2018 07:00:00 19,1 14,6 - - 11 6 22 12 W 1016,6 40 - 0,0
24.06.2018 06:00:00 18,3 14,0 - - 11 6 21 11 W 1016,4 55 - 0,0
24.06.2018 05:00:00 18,4 13,9 - - 11 6 18 10 W 1016,2 60 - -
24.06.2018 04:00:00 18,7 13,8 - - 11 6 21 11 W 1016,4 60 - 0,0
24.06.2018 03:00:00 18,7 14,0 - - 13 7 22 12 W 1016,7 60 - 0,0
24.06.2018 02:00:00 18,8 14,1 17,8 27,3 13 7 23 12 W 1016,9 60 0 0,0
24.06.2018 01:00:00 18,9 14,2 17,7 27,5 12 6 22 12 W 1017,1 60 0 0,0
24.06.2018 00:00:00 18,8 14,5 - - 11 6 24 13 W 1017,1 60 - 0,0
23.06.2018 23:00:00 19,0 15,3 17,9 27,9 11 6 23 12 W 1016,9 60 0 0,0
23.06.2018 22:00:00 19,5 16,2 - - 9 5 16 9 W 1016,5 60 - 0,0
23.06.2018 21:00:00 20,5 16,7 - - 5 3 13 7 W 1016,1 55 - 0,0
23.06.2018 20:00:00 21,6 16,5 - - 5 3 29 16 NW 1015,8 60 - -
23.06.2018 19:00:00 21,2 16,8 - - 16 9 28 15 W 1015,6 45 - 0,0
23.06.2018 18:00:00 21,7 18,3 - - 9 5 16 9 W 1016,0 35 - 1,0
23.06.2018 17:00:00 22,7 19,1 - - 5 3 15 8 NW 1016,7 19 - -
23.06.2018 16:00:00 24,2 16,5 - - 8 4 15 8 NE 1016,6 55 - 0,0
23.06.2018 15:00:00 24,5 17,0 - - 8 4 26 14 ENE 1017,1 50 - 0,0
23.06.2018 14:00:00 26,1 17,2 - - 18 10 26 14 NE 1016,9 23 - -
23.06.2018 13:00:00 26,3 17,9 - - 16 9 28 15 ENE 1017,2 24 - 0,0
23.06.2018 12:00:00 26,1 17,7 - - 21 11 34 18 ENE 1016,9 26 - 0,0
23.06.2018 11:00:00 26,0 18,7 - - 22 12 31 17 ENE 1016,6 35 - -
23.06.2018 10:00:00 25,5 18,4 - - 22 12 29 16 NE 1016,3 35 - 0,0
23.06.2018 09:00:00 24,7 18,9 - - 18 10 34 18 NE 1016,3 40 - 0,0
23.06.2018 08:00:00 23,9 19,6 - - 16 9 24 13 N 1015,9 50 - -
23.06.2018 07:00:00 23,5 19,0 22,9 27,5 12 7 21 11 N 1015,3 33 0 0,0
23.06.2018 06:00:00 23,2 17,0 - - 13 7 21 11 N 1015,1 45 - 0,0
23.06.2018 05:00:00 23,8 16,3 - - 16 9 22 12 N 1014,6 50 - -
23.06.2018 04:00:00 23,3 17,5 - - 13 7 28 15 NNW 1014,2 16 - 0,0
23.06.2018 03:00:00 23,1 19,1 - - 18 10 29 16 NNW 1014,1 18 - 0,0
23.06.2018 02:00:00 23,3 19,0 21,5 28,3 14 8 22 12 NNW 1014,0 29 0 0,0
23.06.2018 01:00:00 22,3 18,1 - - 8 4 16 9 NW 1013,6 45 - 0,0
23.06.2018 00:00:00 22,4 18,4 - - 5 3 13 7 W 1013,2 30 - 0,0
22.06.2018 23:00:00 23,0 18,3 21,0 28,6 4 2 14 8 N 1012,8 39 0 0,0
22.06.2018 22:00:00 23,3 19,7 - - 9 5 16 9 S 1012,0 26 - 0,0
22.06.2018 21:00:00 25,0 20,5 - - 8 4 15 8 SW 1011,4 45 - 0,0
22.06.2018 20:00:00 25,2 20,7 - - 8 4 22 12 NE 1011,2 35 - -
22.06.2018 19:00:00 26,1 21,5 - - 15 8 29 16 NE 1010,6 21 - 0,0
22.06.2018 18:00:00 26,9 21,2 - - 21 11 31 17 NE 1010,2 19 - 0,0
22.06.2018 17:00:00 27,4 21,4 - - 22 12 39 21 NE 1010,0 20 - -
22.06.2018 16:00:00 27,6 21,4 - - 22 12 34 18 NE 1010,2 19 - 0,0
22.06.2018 15:00:00 27,9 19,1 - - 9 5 24 13 ENE 1010,0 25 - 0,0
22.06.2018 14:00:00 27,8 21,6 - - 16 9 26 14 NE 1010,8 19 - -
22.06.2018 13:00:00 27,4 18,9 - - 13 7 21 11 NE 1011,1 25 - 0,0
22.06.2018 12:00:00 27,8 19,1 - - 9 5 18 10 E 1011,6 27 - 0,0
22.06.2018 11:00:00 27,5 19,6 - - 8 4 15 8 ESE 1011,7 19 - -
22.06.2018 10:00:00 27,1 19,7 - - 8 4 15 8 SE 1012,0 30 - 0,0
22.06.2018 09:00:00 26,3 18,9 - - 4 2 9 5 SE 1012,6 19 - 0,0
22.06.2018 08:00:00 25,0 17,5 23,8 26,9 0 0 10 5 N 1012,6 24 60 0,0
22.06.2018 07:00:00 21,8 14,2 - - 5 3 15 8 W 1012,7 35 - 0,0
22.06.2018 06:00:00 20,1 12,8 - - 8 4 15 8 W 1012,6 60 - 0,0
22.06.2018 05:00:00 20,2 13,9 18,9 27,5 5 3 16 9 WNW 1013,2 52 0 0,0
22.06.2018 04:00:00 20,9 12,6 - - 11 6 22 12 W 1013,5 60 - 0,0
22.06.2018 03:00:00 20,7 13,6 - - 11 6 16 9 W 1014,2 55 - 0,0
22.06.2018 02:00:00 21,1 14,3 - - 9 5 15 8 WNW 1014,5 55 - -
22.06.2018 01:00:00 21,5 14,6 20,6 28,1 9 5 15 8 W 1014,9 60 0 0,0
22.06.2018 00:00:00 23,0 14,6 - - 5 3 11 6 WNW 1015,1 55 - 0,0
21.06.2018 23:00:00 22,5 17,0 - - 8 4 11 6 W 1015,1 45 - -
21.06.2018 22:00:00 23,6 18,9 - - 4 2 9 5 WNW 1015,0 40 - 0,0
21.06.2018 21:00:00 24,1 20,4 - - 5 3 9 5 NNE 1014,7 35 - 0,0
21.06.2018 20:00:00 25,8 20,8 - - 4 2 13 7 ENE 1014,4 40 - -
21.06.2018 19:00:00 26,4 20,0 - - 8 4 15 8 SE 1014,6 35 - 0,0
21.06.2018 18:00:00 26,5 20,8 - - 9 5 21 11 SSE 1014,9 19 - 0,0
21.06.2018 17:00:00 26,7 21,2 - - 15 8 24 13 SSE 1015,4 35 - -
21.06.2018 16:00:00 27,6 19,1 - - 11 6 22 12 SSE 1015,5 40 - 0,0
21.06.2018 15:00:00 27,5 20,3 - - 15 8 26 14 SSE 1016,1 18 - 0,0
21.06.2018 14:00:00 27,6 18,3 - - 15 8 24 13 SSE 1016,5 25 - -
21.06.2018 13:00:00 27,2 18,8 - - 15 8 22 12 SSE 1016,9 26 - 0,0
21.06.2018 12:00:00 27,4 17,3 - - 13 7 22 12 SSE 1017,2 28 - 0,0
21.06.2018 11:00:00 26,6 18,7 - - 13 7 18 10 SSE 1017,2 45 - -
21.06.2018 10:00:00 26,8 18,4 - - 9 5 13 7 SE 1017,2 35 - 0,0
21.06.2018 09:00:00 26,8 14,9 - - 5 3 11 6 SSE 1017,3 45 - 0,0
21.06.2018 08:00:00 24,3 13,5 - - 4 2 15 8 WNW 1017,5 19 - -
21.06.2018 07:00:00 21,3 12,4 - - 9 5 21 11 WNW 1017,5 50 - 0,0
21.06.2018 06:00:00 19,9 11,4 - - 9 5 16 9 W 1017,6 60 - 0,0
21.06.2018 05:00:00 19,9 11,6 - - 9 5 16 9 W 1017,6 60 - -
21.06.2018 04:00:00 20,4 12,4 - - 9 5 15 8 W 1017,4 60 - 0,0
21.06.2018 03:00:00 20,8 12,2 - - 9 5 15 8 W 1017,7 60 - 0,0
21.06.2018 02:00:00 20,9 13,1 - - 8 4 13 7 W 1018,0 60 - -
21.06.2018 01:00:00 21,0 13,7 - - 9 5 13 7 W 1018,2 60 - 0,0
21.06.2018 00:00:00 21,4 14,3 - - 8 4 11 6 W 1018,5 55 - 0,0
20.06.2018 23:00:00 21,8 15,6 - - 8 4 13 7 W 1018,5 55 - -
20.06.2018 22:00:00 22,6 17,3 - - 8 4 11 6 W 1018,2 40 - 0,0
20.06.2018 21:00:00 24,2 17,9 - - 4 2 8 4 WSW 1017,7 35 - 0,0
20.06.2018 20:00:00 25,6 17,5 - - 5 3 11 6 ENE 1017,8 50 - -
20.06.2018 19:00:00 26,3 17,6 - - 5 3 15 8 ENE 1017,7 40 - 0,0
20.06.2018 18:00:00 26,4 18,3 - - 11 6 21 11 ENE 1017,6 40 - 0,0
20.06.2018 17:00:00 27,0 18,8 - - 13 7 22 12 ENE 1017,7 29 - -
20.06.2018 16:00:00 27,5 17,7 33,2 27,1 12 7 23 13 ENE 1018,1 29 60 0,0
20.06.2018 15:00:00 26,9 17,7 - - 16 9 22 12 ENE 1018,5 28 - 0,0
20.06.2018 14:00:00 27,3 17,8 - - 13 7 22 12 ENE 1018,8 26 - -
20.06.2018 13:00:00 27,1 17,3 - - 15 8 28 15 ENE 1019,0 22 - 0,0
20.06.2018 12:00:00 27,2 16,2 - - 16 9 28 15 ENE 1018,8 23 - 0,0
20.06.2018 11:00:00 27,5 16,5 - - 21 11 31 17 NE 1018,8 25 - -
20.06.2018 10:00:00 - - - - - - - - - - - - -
20.06.2018 09:00:00 27,9 14,9 - - 15 8 24 13 NNE 1018,7 45 - 0,0
20.06.2018 08:00:00 26,3 13,4 - - 8 4 21 11 N 1018,4 55 - -
20.06.2018 07:00:00 22,9 13,9 - - 8 4 15 8 NNW 1018,2 50 - 0,0
20.06.2018 06:00:00 21,8 13,4 - - 13 7 21 11 W 1017,6 60 - 0,0
20.06.2018 05:00:00 22,1 13,4 - - 11 6 18 10 W 1017,7 60 - -
20.06.2018 04:00:00 22,3 13,4 - - 9 5 15 8 W 1017,9 60 - 0,0
20.06.2018 03:00:00 22,5 13,3 - - 4 2 13 7 NNW 1018,0 60 - 0,0
20.06.2018 02:00:00 23,4 13,3 - - 9 5 16 9 WNW 1017,9 60 - -
20.06.2018 01:00:00 23,6 13,2 22,5 27,5 11 6 18 10 W 1018,1 60 0 0,0
20.06.2018 00:00:00 23,7 13,6 - - 11 6 18 10 W 1018,1 60 - 0,0
19.06.2018 23:00:00 24,1 13,6 22,9 27,7 8 4 13 7 W 1018,1 60 0 0,0
19.06.2018 22:00:00 25,1 13,6 - - 5 3 18 10 W 1017,6 60 - 0,0
19.06.2018 21:00:00 26,0 14,5 - - 11 6 18 10 W 1017,1 60 - 0,0
19.06.2018 20:00:00 27,8 17,3 - - 8 4 16 9 NE 1016,7 50 - -
19.06.2018 19:00:00 29,3 15,8 - - 11 6 18 10 NNE 1016,5 55 - 0,0
19.06.2018 18:00:00 30,3 13,1 - - 13 7 21 11 NE 1016,6 45 - 0,0
19.06.2018 17:00:00 31,2 12,5 34,9 26,9 16 8 29 15 NE 1017,3 29 60 0,0
19.06.2018 16:00:00 31,3 12,1 - - 18 10 34 18 NE 1017,6 25 - 0,0
19.06.2018 15:00:00 30,6 14,2 - - 21 11 31 17 NE 1017,7 30 - 0,0
19.06.2018 14:00:00 29,3 16,1 33,7 26,0 22 12 35 19 NE 1018,0 39 60 0,0
19.06.2018 13:00:00 29,6 15,3 - - 18 10 37 20 ENE 1018,4 50 - 0,0
19.06.2018 12:00:00 29,2 14,6 - - 22 12 35 19 NE 1018,4 60 - 0,0
19.06.2018 11:00:00 28,9 15,8 - - 24 13 34 18 NE 1018,3 24 - -
19.06.2018 10:00:00 29,6 15,0 - - 24 13 39 21 NNE 1018,2 10 - 0,0
19.06.2018 09:00:00 29,2 13,8 - - 18 10 28 15 N 1018,0 50 - 0,0
19.06.2018 08:00:00 27,4 14,1 - - 16 9 24 13 NNW 1017,8 45 - -
19.06.2018 07:00:00 23,6 15,9 - - 0 0 13 7 N 1017,6 40 - 0,0
19.06.2018 06:00:00 22,5 13,3 - - 5 3 15 8 NNW 1017,2 50 - 0,0
19.06.2018 05:00:00 21,2 13,4 16,8 26,4 7 4 14 8 N 1016,9 58 0 0,0
19.06.2018 04:00:00 21,6 13,2 - - 4 2 8 4 WNW 1016,7 55 - 0,0
19.06.2018 03:00:00 21,3 13,2 - - 4 2 9 5 ESE 1016,5 55 - 0,0
19.06.2018 02:00:00 23,3 12,6 - - 8 4 15 8 W 1016,3 55 - -
19.06.2018 01:00:00 23,6 12,6 - - 9 5 16 9 W 1016,6 60 - 0,0
19.06.2018 00:00:00 23,5 13,1 - - 11 6 21 11 W 1016,5 55 - 0,0
18.06.2018 23:00:00 23,8 13,9 - - 13 7 18 10 W 1016,2 55 - -
18.06.2018 22:00:00 24,5 14,6 - - 9 5 16 9 W 1015,7 60 - 0,0
18.06.2018 21:00:00 25,6 16,4 - - 5 3 15 8 W 1015,0 55 - 0,0
18.06.2018 20:00:00 27,1 17,6 27,5 27,2 12 6 23 12 NNE 1014,7 45 60 0,0
18.06.2018 19:00:00 27,7 18,4 - - 15 8 21 11 ENE 1014,3 40 - 0,0
18.06.2018 18:00:00 28,3 19,2 - - 13 7 22 12 NE 1014,2 35 - 0,0
18.06.2018 17:00:00 28,4 18,8 32,3 26,6 14 8 22 12 ENE 1014,3 27 60 0,0
18.06.2018 16:00:00 28,1 20,1 32,8 26,2 19 10 26 14 ENE 1014,6 22 60 0,0
18.06.2018 15:00:00 28,4 20,4 32,4 25,9 17 9 30 16 ENE 1014,8 23 60 0,0
18.06.2018 14:00:00 27,7 20,8 33,5 25,5 19 11 28 15 NE 1015,1 22 60 0,0
18.06.2018 13:00:00 26,7 19,6 - - 11 6 22 12 ENE 1015,4 25 - 0,0
18.06.2018 12:00:00 26,3 19,9 - - 9 5 24 13 ENE 1015,5 27 - 0,0
18.06.2018 11:00:00 25,6 20,2 - - 11 6 21 11 ESE 1015,2 19 - -

tt = temperature
td = dewpoint
tt 5cm = temperature 5cm
tt -20cm = temperature -20cm
ff = wind speed
fx = gusts
dd = wind direction
ppp = reduced air pressure
vv = visibility
sd = sunshine duration
rr = precipitation

Next stations